GW1148 Weather Reports


Display with metric or nautical units.
time (UTC)temp
F
wind
direction
speed
MPH
gust
MPH
rain 1hr
in
rain 24hr
in
rain mn
in
humidity
%
barometer
mb
20221204175807 60 225 1.0 3.0 0.00 0.00 0.00 78 1023.9
20221204175307 60 270 1.0 3.0 0.00 0.00 0.00 79 1024.2
20221204174806 58 225 1.0 3.0 0.00 0.00 0.00 82 1024.3
20221204174205 59 135 1.0 3.0 0.00 0.00 0.00 79 1024.4
20221204173707 58 90 0.0 3.0 0.00 0.00 0.00 81 1024.5
20221204173207 58 270 2.0 3.0 0.00 0.00 0.00 81 1024.5
20221204172707 58 270 1.0 3.0 0.00 0.00 0.00 80 1024.6
20221204172206 59 45 0.0 3.0 0.00 0.00 0.00 80 1024.6
20221204171705 59 270 1.0 3.0 0.00 0.00 0.00 81 1024.6
20221204171207 57 180 0.0 3.0 0.00 0.00 0.00 85 1024.5
20221204170707 57 90 1.0 3.0 0.00 0.00 0.00 83 1024.6
20221204170207 56 135 0.0 3.0 0.00 0.00 0.00 85 1024.6
20221204165707 56 45 1.0 3.0 0.00 0.00 0.00 85 1024.6
20221204165208 56 315 0.0 3.0 0.00 0.00 0.00 86 1024.6
20221204164706 55 180 0.0 3.0 0.00 0.00 0.00 87 1024.6
20221204164205 54 135 0.0 3.0 0.00 0.00 0.00 89 1024.7
20221204163707 53 270 1.0 3.0 0.00 0.00 0.00 91 1024.8
20221204163206 53 135 0.0 3.0 0.00 0.00 0.00 92 1024.7
20221204162607 52 315 0.0 3.0 0.00 0.00 0.00 94 1024.6
20221204162108 51 0 0.0 3.0 0.00 0.00 0.00 96 1024.8
20221204161605 51 0 1.0 3.0 0.00 0.00 0.00 96 1024.8
20221204161107 50 45 1.0 3.0 0.00 0.00 0.00 98 1025.0
20221204160606 50 270 0.0 3.0 0.00 0.00 0.00 100 1024.8
20221204160107 49 45 0.0 3.0 0.00 0.00 0.00 3 1024.8
20221204155607 48 135 0.0 3.0 0.00 0.00 0.00 6 1024.8
20221204155106 48 135 0.0 3.0 0.00 0.00 0.00 8 1024.9
20221204154607 47 90 1.0 3.0 0.00 0.00 0.00 9 1024.9
20221204154105 47 90 1.0 3.0 0.00 0.00 0.00 14 1024.9
20221204153606 46 0 0.0 3.0 0.00 0.00 0.00 15 1024.7
20221204153107 46 0 0.0 3.0 0.00 0.00 0.00 16 1024.8
20221204152605 46 270 0.0 3.0 0.00 0.00 0.00 17 1024.7
20221204152105 45 270 0.0 3.0 0.00 0.00 0.00 17 1024.9
20221204151607 45 0 0.0 3.0 0.00 0.00 0.00 16 1024.9
20221204151107 44 0 0.0 3.0 0.00 0.00 0.00 16 1024.9
20221204150608 44 0 0.0 3.0 0.00 0.00 0.00 16 1024.9
20221204150108 44 0 0.0 3.0 0.00 0.00 0.00 16 1024.9
20221204145607 43 0 0.0 3.0 0.00 0.00 0.00 15 1024.9
20221204145107 43 0 0.0 3.0 0.00 0.00 0.00 15 1024.9
20221204144607 43 0 0.0 3.0 0.00 0.00 0.00 15 1024.9
20221204144107 42 0 0.0 3.0 0.00 0.00 0.00 15 1024.9
20221204143607 41 180 0.0 3.0 0.00 0.00 0.00 14 1024.8
20221204143106 41 180 0.0 3.0 0.00 0.00 0.00 14 1024.8
20221204142606 41 180 0.0 3.0 0.00 0.00 0.00 14 1024.8
20221204142105 41 180 0.0 3.0 0.00 0.00 0.00 14 1024.7
20221204141608 41 180 0.0 3.0 0.00 0.00 0.00 14 1024.7
20221204141108 41 180 0.0 3.0 0.00 0.00 0.00 14 1024.8
20221204140606 42 180 0.0 3.0 0.00 0.00 0.00 14 1024.8
20221204140107 42 180 0.0 3.0 0.00 0.00 0.00 14 1024.8
20221204135506 42 180 0.0 3.0 0.00 0.00 0.00 14 1024.7
20221204135006 42 180 0.0 3.0 0.00 0.00 0.00 14 1024.6
20221204134508 42 180 0.0 3.0 0.00 0.00 0.00 14 1024.7
20221204134007 42 180 0.0 3.0 0.00 0.00 0.00 14 1024.7
20221204133405 43 180 0.0 3.0 0.00 0.00 0.00 15 1024.7
20221204132906 43 180 0.0 3.0 0.00 0.00 0.00 15 1024.7
20221204132404 43 180 0.0 3.0 0.00 0.00 0.00 15 1024.8
20221204131907 43 180 0.0 3.0 0.00 0.00 0.00 15 1024.8
20221204131407 43 180 0.0 3.0 0.00 0.00 0.00 15 1024.7
20221204130907 43 180 0.0 3.0 0.00 0.00 0.00 14 1024.7
20221204130405 43 180 0.0 3.0 0.00 0.00 0.00 14 1024.6
20221204125907 43 315 0.0 3.0 0.00 0.00 0.00 13 1024.7
20221204125407 43 315 0.0 3.0 0.00 0.00 0.00 13 1024.7
20221204124907 43 315 0.0 3.0 0.00 0.00 0.00 13 1024.7
20221204124407 43 315 0.0 3.0 0.00 0.00 0.00 13 1024.7
20221204123907 43 315 0.0 3.0 0.00 0.00 0.00 11 1024.7
20221204123407 43 315 0.0 3.0 0.00 0.00 0.00 11 1024.7
20221204122907 43 315 0.0 3.0 0.00 0.00 0.00 11 1024.7
20221204122405 43 315 0.0 3.0 0.00 0.00 0.00 11 1024.8
20221204121907 43 315 0.0 3.0 0.00 0.00 0.00 9 1024.7
20221204121407 44 315 0.0 3.0 0.00 0.00 0.00 10 1024.7
20221204120905 44 315 0.0 3.0 0.00 0.00 0.00 10 1024.7
20221204120407 45 180 0.0 3.0 0.00 0.00 0.00 11 1024.6
20221204115906 45 180 0.0 3.0 0.00 0.00 0.00 11 1024.6
20221204115407 45 180 0.0 3.0 0.00 0.00 0.00 9 1024.7
20221204114905 45 45 0.0 3.0 0.00 0.00 0.00 9 1024.9
20221204114408 45 45 0.0 3.0 0.00 0.00 0.00 8 1024.9
20221204113906 45 135 0.0 3.0 0.00 0.00 0.00 7 1024.7
20221204113407 45 135 0.0 3.0 0.00 0.00 0.00 8 1024.6
20221204112907 46 135 0.0 3.0 0.00 0.00 0.00 7 1024.6
20221204112407 46 135 0.0 3.0 0.00 0.00 0.00 7 1024.6
20221204111907 46 135 0.0 3.0 0.00 0.00 0.00 8 1024.6
20221204111407 46 135 0.0 3.0 0.00 0.00 0.00 7 1024.6
20221204110205 47 135 0.0 3.0 0.00 0.00 0.00 7 1024.6
20221204105707 47 90 0.0 3.0 0.00 0.00 0.00 7 1024.6
20221204105207 47 90 0.0 3.0 0.00 0.00 0.00 7 1024.7
20221204104709 47 135 0.0 3.0 0.00 0.00 0.00 7 1024.8
20221204104207 47 135 0.0 3.0 0.00 0.00 0.00 7 1024.9
20221204103706 47 135 0.0 3.0 0.00 0.00 0.00 6 1024.8
20221204103207 47 135 0.0 3.0 0.00 0.00 0.00 6 1024.8
20221204102707 47 135 0.0 3.0 0.00 0.00 0.00 5 1024.9
20221204102206 47 135 0.0 3.0 0.00 0.00 0.00 5 1024.8
20221204101707 47 135 0.0 3.0 0.00 0.00 0.00 5 1024.8
20221204101206 48 135 0.0 3.0 0.00 0.00 0.00 4 1024.8
20221204100706 48 135 0.0 3.0 0.00 0.00 0.00 4 1024.7
20221204100207 48 135 0.0 3.0 0.00 0.00 0.00 3 1024.8
20221204095705 48 135 0.0 3.0 0.00 0.00 0.00 3 1024.8
20221204095205 48 90 1.0 3.0 0.00 0.00 0.00 3 1024.9
20221204094707 48 135 0.0 3.0 0.00 0.00 0.00 3 1024.8
20221204094105 48 90 0.0 3.0 0.00 0.00 0.00 3 1025.0
20221204093607 48 45 0.0 3.0 0.00 0.00 0.00 4 1025.0
20221204093106 48 90 0.0 3.0 0.00 0.00 0.00 4 1025.1
20221204092607 48 90 0.0 3.0 0.00 0.00 0.00 4 1024.9
20221204092106 48 135 0.0 3.0 0.00 0.00 0.00 3 1025.0
20221204091605 48 135 0.0 3.0 0.00 0.00 0.00 3 1025.0
20221204091108 48 45 0.0 3.0 0.00 0.00 0.00 3 1025.1
20221204090507 48 135 0.0 3.0 0.00 0.00 0.00 3 1025.1
20221204085906 48 135 0.0 3.0 0.00 0.00 0.00 2 1025.0
20221204085407 49 135 0.0 3.0 0.00 0.00 0.00 2 1025.0
20221204084907 49 90 0.0 3.0 0.00 0.00 0.00 2 1025.1
20221204084307 49 135 0.0 3.0 0.00 0.00 0.00 2 1025.2
20221204083806 49 135 0.0 3.0 0.00 0.00 0.00 1 1025.2
20221204083305 49 90 1.0 3.0 0.00 0.00 0.00 1 1025.1
20221204082807 49 135 1.0 3.0 0.00 0.00 0.00 1 1025.1
20221204082307 49 90 0.0 3.0 0.00 0.00 0.00 1 1025.2
20221204081707 49 135 0.0 3.0 0.00 0.00 0.00 1 1025.3
20221204081107 49 135 0.0 3.0 0.00 0.00 0.00 100 1025.2
20221204080605 49 90 0.0 3.0 0.00 0.00 0.00 100 1025.2
20221204080107 49 90 0.0 3.0 0.00 0.00 0.00 1 1025.3
20221204075607 49 90 1.0 3.0 0.00 0.00 0.00 1 1025.1
20221204075106 49 45 1.0 3.0 0.00 0.00 0.00 1 1025.1
20221204074606 49 135 0.0 3.0 0.00 0.00 0.00 100 1025.1
20221204074006 49 135 0.0 3.0 0.00 0.00 0.00 100 1025.2
20221204073507 50 90 1.0 3.0 0.00 0.00 0.00 100 1025.3
20221204073008 50 90 0.0 3.0 0.00 0.00 0.00 100 1025.5
20221204072505 50 45 1.0 3.0 0.00 0.00 0.00 100 1025.4
20221204072005 50 90 1.0 3.0 0.00 0.00 0.00 100 1025.4
20221204071507 50 135 0.0 3.0 0.00 0.00 0.00 100 1025.4
20221204071007 50 45 1.0 3.0 0.00 0.00 0.00 100 1025.4
20221204070507 50 45 1.0 3.0 0.00 0.00 0.00 100 1025.4
20221204070008 50 45 1.0 3.0 0.00 0.00 0.00 100 1025.4
20221204065508 50 90 1.0 3.0 0.00 0.00 0.00 100 1025.5
20221204065007 50 0 2.0 5.0 0.00 0.00 0.00 100 1025.6
20221204064507 50 0 2.0 5.0 0.00 0.00 0.00 100 1025.6
20221204064008 50 0 2.0 5.0 0.00 0.00 0.00 100 1025.6
20221204063505 50 90 2.0 5.0 0.00 0.00 0.00 100 1025.6
20221204063007 50 0 1.0 5.0 0.00 0.00 0.00 100 1025.6
20221204062505 50 90 0.0 5.0 0.00 0.00 0.00 100 1025.6
20221204062007 50 45 3.0 5.0 0.00 0.00 0.00 100 1025.6
20221204061405 51 45 2.0 5.0 0.00 0.00 0.00 100 1025.7
20221204060905 51 0 2.0 5.0 0.00 0.00 0.00 100 1025.6
20221204060407 51 45 1.0 5.0 0.00 0.00 0.00 100 1025.6
20221204055907 51 45 2.0 5.0 0.00 0.00 0.00 100 1025.6
20221204055407 51 45 3.0 5.0 0.00 0.00 0.00 1 1025.7
20221204054907 51 45 2.0 3.0 0.00 0.00 0.00 1 1025.7
20221204054406 51 45 2.0 3.0 0.00 0.00 0.00 2 1025.6
20221204053908 52 0 3.0 3.0 0.00 0.00 0.00 3 1025.6
20221204053408 52 45 1.0 3.0 0.00 0.00 0.00 4 1025.6
20221204052907 52 0 1.0 3.0 0.00 0.00 0.00 3 1025.6
20221204052406 52 45 1.0 3.0 0.00 0.00 0.00 3 1025.5
20221204051807 52 0 1.0 3.0 0.00 0.00 0.00 3 1025.5
20221204051306 52 45 1.0 3.0 0.00 0.00 0.00 3 1025.5
20221204050807 52 45 1.0 3.0 0.00 0.00 0.00 3 1025.4
20221204050307 52 45 2.0 3.0 0.00 0.00 0.00 4 1025.3
20221204045807 52 90 1.0 3.0 0.00 0.00 0.00 5 1025.3
20221204045306 52 90 0.0 3.0 0.00 0.00 0.00 5 1025.4
20221204044807 52 45 0.0 3.0 0.00 0.00 0.00 6 1025.3
20221204044307 52 45 0.0 3.0 0.00 0.00 0.00 5 1025.4
20221204043707 52 45 1.0 3.0 0.00 0.00 0.00 5 1025.5
20221204043108 52 0 0.0 3.0 0.00 0.00 0.00 5 1025.4
20221204042608 52 0 0.0 3.0 0.00 0.00 0.00 5 1025.4
20221204042107 52 0 0.0 3.0 0.00 0.00 0.00 4 1025.5
20221204041605 52 0 0.0 3.0 0.00 0.00 0.00 3 1025.4
20221204041107 52 0 0.0 3.0 0.00 0.00 0.00 3 1025.3
20221204040607 53 0 0.0 3.0 0.00 0.00 0.00 3 1025.3
20221204040106 53 0 0.0 3.0 0.00 0.00 0.00 2 1025.2
20221204035508 53 0 0.0 3.0 0.00 0.00 0.00 2 1025.3
20221204035008 53 0 0.0 3.0 0.00 0.00 0.00 2 1025.3
20221204034507 53 0 0.0 3.0 0.00 0.00 0.00 1 1025.5
20221204034009 53 270 0.0 3.0 0.00 0.00 0.00 100 1025.6
20221204033507 53 270 1.0 3.0 0.00 0.00 0.00 100 1025.7
20221204033007 53 270 0.0 3.0 0.00 0.00 0.00 100 1025.7
20221204032506 54 270 1.0 3.0 0.00 0.00 0.00 100 1025.6
20221204032009 54 0 1.0 3.0 0.00 0.00 0.00 100 1025.4
20221204031407 54 0 1.0 3.0 0.00 0.00 0.00 99 1025.4
20221204030905 54 0 2.0 3.0 0.00 0.00 0.00 99 1025.5
20221204030407 54 45 1.0 3.0 0.00 0.00 0.00 99 1025.5
20221204025907 54 22 1.0 3.0 0.00 0.00 0.00 99 1025.4
20221204025305 53 90 1.0 3.0 0.00 0.00 0.00 100 1025.4
20221204024806 53 0 1.0 3.0 0.00 0.00 0.00 1 1025.4
20221204024308 53 45 1.0 3.0 0.00 0.00 0.00 2 1025.3
20221204023607 52 180 0.0 3.0 0.00 0.00 0.00 3 1025.3
20221204023105 52 180 0.0 3.0 0.00 0.00 0.00 2 1025.2
20221204022607 52 180 0.0 3.0 0.00 0.00 0.00 1 1025.4
20221204022107 52 180 0.0 3.0 0.00 0.00 0.00 1 1025.4
20221204021606 52 180 0.0 3.0 0.00 0.00 0.00 100 1025.2
20221204021107 53 180 0.0 3.0 0.00 0.00 0.00 100 1025.1
20221204020606 53 180 0.0 3.0 0.00 0.00 0.00 100 1025.0
20221204020010 53 90 1.0 3.0 0.00 0.00 0.00 99 1024.9
20221204015505 53 180 1.0 3.0 0.00 0.00 0.00 98 1024.9
20221204015008 53 180 0.0 3.0 0.00 0.00 0.00 98 1024.7
20221204014507 53 135 0.0 3.0 0.00 0.00 0.00 97 1024.9
20221204014007 53 315 0.0 3.0 0.00 0.00 0.00 97 1024.8
20221204013506 54 315 0.0 3.0 0.00 0.00 0.00 97 1024.7
20221204013008 54 180 0.0 3.0 0.00 0.00 0.00 97 1024.6
20221204012405 54 270 0.0 3.0 0.00 0.00 0.00 97 1024.6
20221204011905 53 0 1.0 3.0 0.00 0.00 0.00 98 1024.5
20221204011405 53 270 0.0 3.0 0.00 0.00 0.00 98 1024.5
20221204010906 53 270 0.0 3.0 0.00 0.00 0.00 97 1024.6
20221204010409 53 225 0.0 3.0 0.00 0.00 0.00 97 1024.4
20221204005906 53 225 0.0 3.0 0.00 0.00 0.00 97 1024.4
20221204005306 54 225 0.0 3.0 0.00 0.00 0.00 96 1024.4
20221204004706 54 270 0.0 3.0 0.00 0.00 0.00 95 1024.2
20221204004107 54 0 2.0 3.0 0.00 0.00 0.00 95 1024.2
20221204003605 54 270 2.0 3.0 0.00 0.00 0.00 94 1024.0
20221204003106 54 270 0.0 3.0 0.00 0.00 0.00 93 1024.0
20221204002606 54 180 0.0 3.0 0.00 0.00 0.00 92 1024.1
20221204002108 55 135 0.0 3.0 0.00 0.00 0.00 91 1024.1
20221204001608 55 90 0.0 3.0 0.00 0.00 0.00 90 1024.2
20221204001106 55 90 0.0 3.0 0.00 0.00 0.00 89 1024.2
20221204000609 55 0 0.0 3.0 0.00 0.00 0.00 90 1024.2
20221204000108 56 0 0.0 3.0 0.00 0.00 0.00 89 1024.2
20221203235507 56 90 0.0 3.0 0.00 0.00 0.00 88 1024.2
20221203235007 56 0 1.0 3.0 0.00 0.00 0.00 88 1024.2
20221203234506 56 0 0.0 3.0 0.00 0.00 0.00 87 1024.2
20221203233907 56 90 0.0 3.0 0.00 0.00 0.00 88 1024.2
20221203233406 56 135 0.0 3.0 0.00 0.00 0.00 88 1024.1
20221203232812 57 135 0.0 3.0 0.00 0.00 0.00 88 1024.1
20221203232208 57 90 0.0 3.0 0.00 0.00 0.00 88 1023.9
20221203231705 57 0 1.0 3.0 0.00 0.00 0.00 87 1024.0
20221203231207 57 0 1.0 3.0 0.00 0.00 0.00 87 1024.0
20221203230607 57 45 2.0 3.0 0.00 0.00 0.00 86 1024.0
20221203230108 57 135 0.0 3.0 0.00 0.00 0.00 87 1023.8
20221203225508 57 0 1.0 3.0 0.00 0.00 0.00 88 1023.9
20221203224908 57 45 0.0 3.0 0.00 0.00 0.00 88 1023.8
20221203224406 57 0 1.0 3.0 0.00 0.00 0.00 89 1023.9
20221203223908 57 0 1.0 3.0 0.00 0.00 0.00 88 1023.9
20221203223407 57 0 1.0 3.0 0.00 0.00 0.00 87 1023.9
20221203222907 57 90 0.0 3.0 0.00 0.00 0.00 87 1023.8
20221203222407 57 0 1.0 3.0 0.00 0.00 0.00 86 1024.0
20221203221908 57 135 1.0 3.0 0.00 0.00 0.00 86 1023.6
20221203221409 57 90 1.0 3.0 0.00 0.00 0.00 88 1023.6
20221203220907 57 180 0.0 4.0 0.00 0.00 0.00 88 1023.5
20221203220407 57 135 2.0 4.0 0.00 0.00 0.00 87 1023.6
20221203215806 57 90 1.0 4.0 0.00 0.00 0.00 86 1024.8
20221203215306 57 337 2.0 4.0 0.00 0.00 0.00 82 1025.2
20221203214809 57 0 0.0 4.0 0.00 0.00 0.00 84 1025.1
20221203214306 58 225 0.0 4.0 0.00 0.00 0.00 82 1025.1
20221203213807 59 45 0.0 4.0 0.00 0.00 0.00 77 1024.7
20221203213207 59 270 0.0 4.0 0.00 0.00 0.00 72 1024.8
20221203212707 60 0 2.0 4.0 0.00 0.00 0.00 69 1024.9
20221203212206 60 225 1.0 4.0 0.00 0.00 0.00 69 1024.9
20221203211705 61 292 2.0 4.0 0.00 0.00 0.00 63 1024.4
20221203211206 63 270 3.0 4.0 0.00 0.00 0.00 59 1024.1
20221203210705 64 270 2.0 4.0 0.00 0.00 0.00 52 1024.0
20221203210207 64 45 1.0 4.0 0.00 0.00 0.00 50 1023.9
20221203205705 65 90 0.0 4.0 0.00 0.00 0.00 49 1023.5
20221203205207 64 180 0.0 4.0 0.00 0.00 0.00 49 1023.7
20221203204606 65 225 1.0 4.0 0.00 0.00 0.00 50 1023.7
20221203204107 65 180 2.0 4.0 0.00 0.00 0.00 50 1023.5
20221203203607 65 180 1.0 4.0 0.00 0.00 0.00 51 1023.5
20221203203106 65 180 1.0 4.0 0.00 0.00 0.00 52 1023.5
20221203202608 65 180 1.0 4.0 0.00 0.00 0.00 53 1023.6
20221203202107 65 180 1.0 4.0 0.00 0.00 0.00 55 1023.8
20221203201608 65 180 2.0 3.0 0.00 0.00 0.00 52 1024.0
20221203201107 65 225 1.0 3.0 0.00 0.00 0.00 51 1024.2
20221203200607 65 135 0.0 3.0 0.00 0.00 0.00 51 1024.3
20221203200107 65 180 1.0 3.0 0.00 0.00 0.00 50 1024.2
20221203195405 66 180 0.0 5.0 0.00 0.00 0.00 50 1024.4
20221203194908 66 180 1.0 5.0 0.00 0.00 0.00 49 1024.3
20221203194408 67 135 1.0 9.0 0.00 0.00 0.00 50 1024.5
20221203193807 66 180 1.0 9.0 0.00 0.00 0.00 52 1024.7
20221203193307 66 225 0.0 9.0 0.00 0.00 0.00 52 1024.8
20221203192809 66 157 1.0 9.0 0.00 0.00 0.00 55 1025.0
20221203192306 65 180 2.0 9.0 0.00 0.00 0.00 58 1025.3
20221203191807 66 180 0.0 9.0 0.00 0.00 0.00 59 1025.4
20221203191206 65 135 0.0 9.0 0.00 0.00 0.00 53 1025.5
20221203190707 65 180 1.0 9.0 0.00 0.00 0.00 49 1025.6
20221203190206 65 180 3.0 9.0 0.00 0.00 0.00 49 1025.9
20221203185707 65 315 4.0 9.0 0.00 0.00 0.00 48 1026.2
20221203185205 66 315 5.0 9.0 0.00 0.00 0.00 47 1026.4
20221203184707 67 225 5.0 7.0 0.00 0.00 0.00 45 1026.6
20221203184206 67 180 2.0 7.0 0.00 0.00 0.00 44 1026.6
20221203183709 66 180 5.0 7.0 0.00 0.00 0.00 44 1026.7
20221203183107 66 225 3.0 7.0 0.00 0.00 0.00 44 1026.5
20221203182607 67 180 4.0 7.0 0.00 0.00 0.00 44 1026.5
20221203182005 67 180 4.0 7.0 0.00 0.00 0.00 43 1026.5
20221203181508 67 180 7.0 7.0 0.00 0.00 0.00 44 1026.5
20221203181007 66 180 4.0 4.0 0.00 0.00 0.00 44 1026.4
20221203180508 66 90 2.0 3.0 0.00 0.00 0.00 45 1026.2
20221203180005 66 135 3.0 3.0 0.00 0.00 0.00 43 1026.3